Theta_e
326 322 321 312 303 300 292 291 295 294 292 292 293 291 288 285 288 294 293 294 295 296 300 302 316 329 340 339 341 339 338 336 337 338 339 341 341 340 340 339 339 340 340 339 338 337 337 337 336
321 322 321 306 298 293 290 289 288 288 292 292 289 290 287 283 287 288 289 294 295 296 299 301 317 333 340 340 340 341 340 340 340 339 339 339 340 340 339 338 337 337 337 337 336 335 335 336 335
318 315 312 303 296 293 287 284 285 290 290 293 287 287 285 281 287 287 292 294 295 296 298 302 316 329 336 337 338 338 337 337 336 336 336 336 337 337 336 336 335 335 336 336 338 337 335 333 332
316 309 303 294 284 278 279 281 285 289 290 288 288 281 285 288 287 290 293 294 294 296 297 303 314 322 328 331 333 333 333 333 333 333 332 332 332 331 331 331 331 330 330 331 333 333 332 331 330
309 304 291 286 280 280 282 283 285 284 285 284 288 281 281 288 291 292 293 294 293 295 297 299 311 314 320 324 326 327 327 327 327 327 326 325 326 326 326 326 326 325 324 325 326 327 327 325 323
302 302 290 282 280 281 283 284 284 283 284 284 284 282 282 290 290 291 293 292 294 294 296 298 301 308 311 315 318 319 319 319 319 319 319 318 317 318 319 319 319 320 319 319 319 320 319 317 317
297 292 285 282 280 280 280 284 281 282 282 281 285 280 283 287 290 291 292 292 293 294 294 295 298 299 303 307 309 310 311 311 311 310 310 310 310 310 311 312 314 314 314 314 313 313 312 312 312
297 294 285 284 282 277 281 282 284 282 281 286 284 281 281 287 290 291 292 292 292 292 293 294 295 297 297 298 302 303 304 304 304 303 302 300 302 303 304 304 307 309 309 309 308 307 306 306 308
294 283 278 279 281 278 283 280 283 285 283 284 285 284 285 288 290 290 289 290 290 292 292 293 293 294 295 296 296 297 298 299 298 298 297 296 295 295 296 300 302 303 304 304 305 303 302 300 301
285 280 278 282 283 280 281 281 282 281 281 281 282 285 285 287 288 287 287 287 288 289 291 292 293 293 294 294 294 294 294 293 293 293 293 292 292 293 292 294 296 297 296 299 300 299 297 296 296
285 279 283 284 284 283 280 280 282 281 278 280 281 283 285 285 285 286 287 287 288 289 290 291 292 293 293 293 293 293 293 293 292 292 292 292 291 291 291 291 290 291 292 290 291 291 291 292 294
281 284 285 284 285 284 280 282 279 278 279 284 284 284 285 285 285 285 285 287 288 289 290 291 291 291 292 292 292 292 292 292 292 292 292 291 290 289 289 289 289 289 290 289 289 289 289 291 293
281 283 284 284 284 283 283 279 280 279 283 285 285 285 284 285 285 286 287 287 289 288 290 290 291 291 291 291 292 291 291 291 291 290 291 291 290 289 288 288 288 288 288 288 288 288 288 289 291
285 284 285 286 285 285 281 279 283 281 285 287 286 285 285 285 285 287 287 287 288 289 290 290 290 291 291 290 290 291 291 291 290 290 290 290 289 288 287 287 287 287 287 287 287 287 287 287 289
286 283 285 287 288 285 288 281 278 284 286 285 286 286 286 286 287 286 287 287 288 289 290 290 290 291 290 290 290 290 290 290 289 289 289 289 288 287 287 287 287 287 287 287 287 286 287 287 288
285 283 279 282 286 287 285 279 282 285 284 284 285 285 286 286 287 287 288 288 288 289 290 290 290 290 290 290 290 290 290 289 289 289 289 289 288 288 287 287 286 287 287 286 286 285 285 285 286
279 276 277 279 282 281 282 279 282 285 284 283 284 284 285 285 286 287 288 288 288 288 289 289 290 289 289 290 290 290 289 289 289 289 289 288 288 288 287 287 287 287 286 285 285 284 284 284 284
277 276 277 275 278 279 278 279 281 282 282 282 282 282 282 284 285 287 287 288 288 288 289 289 289 289 289 290 290 290 289 289 289 289 289 289 288 288 287 286 286 286 285 285 285 284 284 284 284
277 276 274 276 279 277 276 276 280 282 281 280 281 281 280 281 283 287 287 287 288 287 287 288 288 288 289 288 287 287 286 287 288 289 289 289 288 288 287 287 286 286 284 283 284 284 282 282 283
277 275 275 277 279 277 274 275 278 281 280 280 280 280 280 280 281 283 285 285 285 285 286 286 287 287 288 288 288 288 287 288 288 289 289 289 289 288 287 286 286 285 284 284 283 283 282 282 283
276 276 275 275 278 276 276 274 275 277 278 278 278 280 280 279 279 280 282 283 283 283 283 285 285 286 286 287 287 286 286 286 286 286 287 287 288 288 287 286 286 285 285 284 283 283 282 281 282
276 278 278 279 275 269 275 270 273 276 275 277 279 277 278 278 279 279 280 281 283 283 283 284 285 285 286 287 286 285 284 283 285 286 287 287 287 287 287 287 286 286 285 284 284 283 282 282 280
278 279 279 278 274 271 271 267 273 275 276 277 277 278 278 279 279 279 280 281 282 283 282 282 283 284 285 285 285 285 284 284 285 285 285 286 286 287 287 287 286 286 285 285 284 283 282 282 281
281 278 277 276 273 264 267 269 273 273 277 278 280 279 279 279 279 280 281 280 281 281 282 282 282 283 284 284 284 284 284 284 284 284 284 285 285 286 286 286 286 286 285 285 284 284 282 282 282
278 274 266 268 266 268 270 267 276 278 277 279 280 280 280 280 279 280 280 279 280 280 281 282 282 283 284 284 284 284 284 284 283 284 284 283 284 284 285 285 285 285 285 285 285 284 283 282 282
275 272 269 263 265 267 268 268 277 278 279 279 280 280 279 279 280 280 281 281 281 281 281 281 282 282 283 283 283 284 284 284 284 284 284 284 284 284 285 285 285 285 285 285 285 284 284 283 282
272 271 271 260 251 261 268 272 277 277 277 278 278 278 279 279 280 280 281 281 281 281 281 281 282 283 283 283 284 283 283 283 283 284 284 284 284 284 284 284 284 285 285 285 284 284 283 282 282
273 274 269 265 264 263 268 267 276 278 280 278 277 278 280 280 279 280 281 281 282 282 282 281 282 282 283 283 284 284 283 284 284 283 283 283 284 284 284 284 284 284 284 284 284 283 283 282 282
269 270 269 268 267 265 263 273 278 279 281 279 279 279 281 281 281 281 282 282 283 283 282 281 281 282 282 283 283 284 283 284 283 283 283 283 284 283 283 283 284 284 283 283 283 283 282 281 281
272 271 271 269 266 264 266 272 280 280 280 280 280 280 280 282 283 282 282 282 281 282 282 282 282 282 282 283 283 283 284 283 283 283 283 284 283 283 283 283 283 283 283 283 283 282 282 280 279
Wind_Speed
8 7 2 3 3 4 3 3 2 6 4 3 6 5 8 7 5 2 9 13 18 15 16 20 30 38 12 17 16 16 17 16 16 17 17 19 19 18 18 18 17 17 17 15 14 13 13 14 15
4 3 4 3 5 5 3 3 8 7 2 7 7 3 7 6 5 4 8 17 15 14 13 17 28 27 20 19 18 20 20 20 20 19 18 20 18 19 19 19 18 17 16 15 13 13 13 15 15
1 4 3 2 2 4 5 5 4 4 8 3 5 8 4 5 8 7 10 13 14 12 13 15 25 27 27 22 22 22 22 21 21 21 21 20 20 21 20 20 18 19 18 17 17 16 17 16 16
1 4 4 4 4 3 3 6 8 1 4 10 8 9 6 11 6 8 9 10 8 10 11 15 23 27 26 26 25 23 23 21 21 20 21 20 20 20 20 20 20 20 19 18 18 18 18 17 18
3 3 6 6 5 4 6 5 9 4 3 7 2 5 5 6 11 10 9 9 10 9 9 11 22 25 25 25 23 23 22 21 20 20 20 21 20 20 20 19 19 18 17 17 17 17 18 18 19
4 2 5 4 5 3 4 8 3 7 7 4 3 6 4 6 14 11 7 9 9 9 9 8 17 20 24 24 22 21 20 19 19 19 21 21 21 22 21 21 20 20 19 19 19 18 19 19 19
5 4 5 5 6 3 2 3 3 4 7 5 6 4 4 8 14 9 10 7 8 9 9 8 8 14 19 22 21 19 20 19 18 19 20 21 22 21 22 21 20 20 20 20 20 19 18 19 20
4 4 5 7 2 3 1 3 2 7 5 2 4 4 3 7 14 7 7 10 7 9 9 9 9 11 10 10 19 20 19 18 19 18 18 19 20 21 21 20 20 21 20 21 21 21 19 19 21
5 7 5 5 4 3 2 2 3 4 4 4 5 4 4 9 9 8 9 10 10 9 10 10 11 9 9 9 11 12 17 16 15 15 17 13 11 13 16 19 22 21 21 21 22 22 21 18 18
8 6 4 4 3 5 4 2 4 1 1 3 3 6 6 6 9 10 9 9 11 11 11 9 11 10 8 8 7 8 9 8 9 10 11 10 11 12 12 15 20 22 19 22 22 22 20 16 10
7 6 4 7 8 5 3 4 2 4 5 4 2 4 5 5 6 7 8 7 9 9 9 10 9 10 8 8 5 4 4 5 6 12 10 11 9 9 9 7 8 9 16 10 13 13 10 13 10
10 13 5 3 5 2 3 2 5 4 3 2 4 2 2 4 3 5 5 8 8 10 10 11 10 9 8 6 6 6 6 5 6 8 11 8 6 9 9 8 10 10 8 11 11 8 11 12 13
13 10 10 11 11 9 9 8 5 5 4 2 3 5 4 1 1 1 2 4 5 7 8 10 10 10 8 8 6 6 7 7 6 8 10 7 9 8 8 8 9 9 9 10 10 10 10 11 11
6 11 9 6 6 4 4 4 4 2 5 4 4 3 2 1 1 2 1 2 4 4 7 8 9 8 9 8 9 6 6 8 8 8 9 10 7 7 8 9 9 9 9 9 9 10 9 8 8
8 7 4 4 2 3 2 3 3 5 5 1 6 5 5 5 4 2 2 2 3 3 4 6 8 9 9 9 8 6 7 7 7 7 9 9 8 9 10 8 9 8 8 10 10 10 9 9 7
1 3 5 6 9 0 3 3 4 6 3 3 4 6 7 8 8 6 5 3 1 2 4 5 5 7 7 7 6 6 5 6 5 6 6 10 10 10 9 8 8 8 8 8 9 9 10 9 7
9 4 4 4 4 4 3 3 3 7 7 6 5 5 6 7 7 8 8 7 6 4 3 3 4 7 7 7 6 6 7 6 5 6 6 8 9 9 9 7 7 7 8 8 8 9 8 9 8
2 3 2 2 6 5 6 6 4 6 6 7 6 5 5 7 9 8 8 7 5 5 5 5 4 5 6 5 5 4 5 4 4 5 5 7 6 8 8 7 7 7 7 7 6 9 9 9 8
7 4 2 3 2 2 3 5 8 7 6 8 7 7 7 7 5 7 8 8 7 5 5 5 5 5 4 3 3 1 2 2 3 3 5 5 5 7 7 5 6 6 7 7 8 3 8 9 9
4 3 3 4 2 1 5 13 10 10 9 9 10 9 9 5 5 6 8 8 8 8 8 7 8 7 5 3 2 2 3 1 1 2 3 4 5 5 5 6 5 6 6 8 9 9 3 5 8
4 4 1 3 5 2 9 6 4 5 6 5 8 8 8 12 11 9 9 10 8 9 9 8 7 6 4 5 3 2 2 2 1 1 1 1 3 4 4 5 5 4 4 5 6 6 7 6 6
2 1 1 3 4 2 6 7 6 5 8 10 14 12 13 12 8 8 10 9 11 11 7 7 7 7 6 6 5 5 4 4 3 2 2 2 2 3 3 4 3 3 3 5 3 3 4 2 5
3 1 2 2 3 3 6 4 9 2 8 16 18 17 16 15 14 14 13 13 12 9 9 8 8 7 7 7 6 5 4 3 2 2 3 3 2 3 4 3 3 3 2 2 2 2 3 2 1
3 1 3 3 2 5 5 4 9 7 9 5 11 18 19 17 16 15 13 11 10 9 10 10 10 10 8 7 7 7 7 5 4 3 3 3 2 2 3 4 4 3 3 3 3 3 2 2 2
3 4 5 8 7 5 1 2 15 7 9 7 9 15 17 16 16 16 16 14 13 14 14 12 12 13 11 10 9 9 8 6 6 5 4 4 3 3 5 5 5 4 5 5 5 4 3 2 1
3 2 7 5 3 6 3 9 10 8 6 8 7 6 8 13 14 17 18 16 15 16 15 14 14 14 12 11 11 9 9 6 6 7 5 5 5 5 4 5 5 7 7 6 5 3 3 4 4
1 1 1 9 1 3 4 9 14 6 12 9 9 9 11 14 16 18 16 16 16 16 16 17 16 15 13 13 12 11 10 10 10 10 7 6 6 6 7 7 7 7 7 7 6 5 6 5 4
2 4 4 4 3 7 7 7 11 6 8 6 10 14 14 10 12 15 15 17 15 17 16 15 16 17 16 15 13 12 13 12 11 9 10 10 8 8 7 7 7 7 8 8 8 7 6 6 5
3 3 3 3 5 6 3 9 11 11 9 9 11 11 12 13 15 15 15 15 15 14 15 16 16 16 15 14 14 13 11 11 10 10 10 10 7 8 8 8 8 9 9 8 8 8 7 8 8
4 7 7 7 7 3 2 17 5 9 1 5 9 9 9 12 13 13 14 13 14 17 15 18 16 17 17 15 13 13 12 11 11 11 10 9 10 7 8 7 8 8 8 7 9 10 8 8 8
Wind_Direction
329 314 323 37 122 81 135 83 2 97 70 84 43 34 88 55 22 80 338 4 341 332 334 331 334 333 130 103 96 92 85 89 81 67 65 68 66 66 66 61 59 65 62 62 52 53 52 49 48
327 324 29 71 136 173 154 5 91 55 7 120 74 24 48 72 29 352 348 342 339 333 340 337 346 352 94 92 89 88 84 81 75 76 74 66 65 64 64 59 56 52 56 55 54 51 50 46 44
235 33 90 106 123 192 126 43 37 61 28 63 99 46 51 13 0 359 342 332 335 347 351 337 0 16 43 67 74 74 73 71 68 66 65 60 59 58 58 55 54 50 47 43 41 48 44 42 38
61 27 46 82 60 39 61 28 351 32 7 19 107 67 82 38 351 340 342 344 339 0 5 353 16 22 40 49 58 63 66 68 67 67 65 62 58 56 53 51 50 44 41 39 37 45 44 43 42
45 97 82 73 92 91 58 9 13 50 35 7 347 124 75 20 3 1 8 350 360 15 14 19 23 26 37 48 52 60 60 62 67 70 69 65 63 62 59 55 55 52 51 49 46 46 46 44 43
62 45 75 102 91 105 70 18 339 41 22 18 35 104 87 20 8 353 18 354 15 33 19 36 29 36 37 44 51 58 63 64 66 69 70 68 65 62 59 56 54 52 50 49 47 47 44 43 43
74 58 78 94 116 94 13 45 22 5 24 21 310 82 102 22 349 354 357 7 21 42 42 45 45 43 41 44 45 53 60 63 64 65 66 66 65 63 58 56 54 52 49 48 47 45 45 42 41
66 85 79 39 93 90 352 84 4 23 42 302 317 93 87 339 334 3 2 8 23 39 48 44 60 56 45 43 46 48 51 60 62 65 66 66 62 57 56 55 54 53 52 49 48 47 44 42 40
348 63 57 30 27 114 162 192 42 354 72 31 24 34 29 337 357 26 15 16 11 31 37 46 50 60 62 61 49 44 47 53 52 57 57 53 58 55 49 49 50 50 48 49 48 47 44 42 40
54 66 50 351 27 94 64 61 114 116 191 75 73 55 42 8 33 26 21 13 19 17 30 39 50 49 61 56 54 49 40 42 47 46 53 58 56 54 54 44 43 41 39 40 41 42 41 41 41
33 89 150 52 90 102 109 70 69 157 48 14 44 88 61 33 36 29 359 14 6 20 31 30 51 54 57 59 46 50 44 41 44 48 48 55 58 48 52 44 33 30 29 33 35 34 37 38 42
93 54 66 35 33 89 84 128 73 43 106 46 31 19 104 68 43 38 335 352 11 17 24 33 42 53 46 53 51 48 49 46 50 44 45 50 52 48 49 50 45 40 28 30 35 37 38 43 46
75 102 89 112 103 85 78 67 103 71 97 91 70 60 69 148 59 75 310 330 7 37 21 40 43 53 55 60 60 55 55 53 50 48 42 47 57 54 53 51 48 44 33 35 37 38 41 43 45
110 105 123 120 87 81 125 168 156 246 215 185 156 130 106 102 287 280 40 11 8 31 25 41 48 50 62 60 61 63 59 56 52 48 42 41 51 62 53 52 49 47 38 32 36 37 39 41 45
154 91 116 53 109 113 226 66 87 191 216 249 190 167 184 194 219 207 262 302 356 14 22 36 68 52 62 64 64 54 56 57 51 55 54 47 47 57 62 54 49 42 37 37 36 36 41 44 41
60 56 23 342 353 78 297 258 208 199 211 248 212 186 193 204 205 205 211 231 285 4 39 33 46 68 65 67 69 70 49 68 65 62 64 64 59 54 62 60 51 41 45 40 41 30 31 36 32
21 71 30 324 38 316 358 244 214 181 205 242 254 202 207 210 218 204 206 199 193 189 156 116 81 73 72 65 67 66 72 73 69 75 67 67 73 67 66 59 51 48 49 42 41 42 33 19 22
1 45 21 8 322 4 349 301 275 202 213 242 256 256 231 224 222 207 200 211 205 198 196 184 157 140 126 108 107 97 85 82 79 80 82 78 77 75 75 65 56 49 54 44 42 47 39 24 357
122 102 88 289 321 310 274 264 247 230 239 246 241 240 239 234 231 189 193 200 200 200 218 214 191 197 181 152 145 128 114 117 102 100 102 89 82 76 78 75 64 60 58 51 42 49 38 30 6
45 83 358 277 322 302 345 282 245 202 229 225 229 229 228 222 221 205 197 198 201 198 207 202 202 196 191 194 162 157 158 167 128 145 111 103 96 91 85 81 70 57 59 46 40 37 35 38 22
36 89 358 208 318 94 320 287 233 235 225 231 230 228 223 215 212 209 205 205 201 208 204 204 202 201 193 188 150 132 125 123 185 175 166 134 122 112 101 89 85 75 69 65 53 39 43 35 40
61 254 277 358 22 311 21 286 279 233 244 221 230 219 224 215 212 212 208 211 211 217 205 210 202 197 198 182 177 183 184 172 190 183 167 180 148 140 140 124 116 101 82 66 60 58 54 61 36
156 77 35 52 78 58 358 70 272 341 256 236 223 220 218 212 206 210 208 208 209 203 204 207 208 206 202 194 195 187 184 184 164 186 198 207 197 194 188 171 136 116 107 109 111 99 77 83 103
144 159 73 56 79 33 263 111 278 201 215 234 214 214 211 207 205 208 207 200 208 199 199 202 203 213 206 201 202 198 196 190 191 209 216 217 226 225 209 198 199 178 179 192 197 181 172 167 156
26 52 347 358 10 222 177 11 247 246 231 224 218 221 211 204 203 207 205 198 203 200 203 202 200 214 205 204 205 204 209 201 209 212 218 216 229 224 211 201 206 206 214 212 205 206 210 219 251
8 111 146 238 264 273 8 240 251 214 226 225 235 237 214 212 210 209 207 205 206 206 203 201 198 212 204 205 209 205 205 205 212 215 212 221 222 227 211 214 211 219 221 221 221 230 242 234 244
271 32 106 99 97 29 242 280 287 239 253 230 228 225 225 214 210 211 206 205 203 202 203 200 205 211 205 205 206 207 204 201 211 216 208 221 224 231 226 224 226 224 225 224 226 232 237 243 256
165 153 62 4 326 299 280 276 243 277 267 228 230 228 229 218 214 212 208 208 206 207 205 202 205 208 207 207 206 212 207 209 212 204 211 215 224 218 220 228 229 229 227 223 222 232 233 249 259
151 209 54 122 150 199 291 251 215 221 237 238 242 233 223 218 217 216 215 213 210 208 203 204 204 205 210 205 209 208 206 216 214 214 215 218 218 216 218 222 225 226 225 219 221 231 237 242 262
183 188 166 136 233 234 173 266 179 237 199 200 264 253 238 222 217 213 217 207 202 208 207 208 204 206 210 206 208 207 206 206 209 218 215 212 222 208 221 220 226 229 229 222 221 228 229 238 258